Hourly Data Report for October 13, 2016

All times are specified in Local Standard Time (LST). Add 1 hour to adjust for Daylight Saving Time where and when it is observed.

GJOA HAVEN A
NUNAVUT

68°38'08.000" N
95°51'01.000" W
46.90 m
2302337
71597
YHK

Related Data

No related data is available for this station

Download Data

Hourly Data (October 2016)
Hourly Data Report for October 13, 2016
Temp Definition
°C
Dew Point Temp Definition
°C
Rel Hum Definition
%
Wind Dir Definition
10's deg

Wind Spd Definition
km/h
Visibility Definition
km
Stn Press Definition
kPa
Hmdx Definition


Wind Chill Definition


Weather Definition


TIME
00:00 Legend Double Dagger -5.0 -6.1 92 5 41 12.9 100.32   -14 Snow
01:00 Legend Double Dagger -4.8 -5.5 95 5 45 2.4 100.31   -14 Snow
02:00 Legend Double Dagger -4.3 -5.2 94 5 43 4.0 100.31   -13 Snow
03:00 Legend Double Dagger -4.2 -5.1 93 6 43 2.0 100.30   -13 Snow
04:00 Legend Double Dagger -4.1 -4.6 96 5 41 2.0 100.32   -13 Snow
05:00 Legend Double Dagger -4.0 -4.8 94 6 37 3.2 100.34   -12 Snow
06:00 Legend Double Dagger -3.8 -4.4 96 6 34 2.8 100.33   -12 Snow
07:00 Legend Double Dagger -3.7 -4.1 97 6 35 1.2 100.33   -12 Snow
08:00 Legend Double Dagger -3.5 -4.5 93 8 28 4.8 100.33   -11 Snow
09:00 Legend Double Dagger -3.6 -4.9 91 10 21 8.1 100.35   -10 Snow
10:00 Legend Double Dagger -3.8 -5.9 85 10 22 16.1 100.36   -10 Snow
11:00 Legend Double Dagger -3.7 -5.0 91 10 18 16.1 100.37   -10 Snow
12:00 Legend Double Dagger -4.0 -5.2 91 9 24 8.1 100.38   -11 Snow
13:00 Legend Double Dagger -4.3 -5.5 91 9 18 11.3 100.41   -10 Snow
14:00 Legend Double Dagger -4.6 -5.4 94 8 15 2.4 100.41   -10 Snow
15:00 Legend Double Dagger -4.7 -6.3 89 9 11 16.1 100.41   -9 Snow
16:00 Legend Double Dagger -4.9 -5.8 93 9 11 4.8 100.42   -9 Snow
17:00 Legend Double Dagger -4.9 -5.4 96 12 9 2.4 100.41   -9 Snow
18:00 Legend Double Dagger -5.2 -5.7 96 6 11 4.8 100.39   -10 Snow
19:00 Legend Double Dagger -5.1 -6.4 91 10 11 11.3 100.40   -10 Snow
20:00 Legend Double Dagger -5.2 -6.0 94 13 5 2.4 100.38   -7 Snow
21:00 Legend Double Dagger -5.1 -5.6 97 24 8 6.4 100.36   -9 Snow
22:00 Legend Double Dagger -5.3 -5.8 96 26 8 1.6 100.35   -9 Snow
23:00 Legend Double Dagger -5.9 -6.3 97 33 8 1.2 100.34   -10 Snow

Notes on Data Quality.

Legend

  • E = Estimated
  • M = Missing
  • NA = Not Available
  • ‡ = Partner data that is not subject to review by the National Climate Archives
Date modified: